Wind_Speed
15 12 8 7 10 15 19 21 23 25 25 24 22 20 19 17 15 13 12 11 10 8 7 6 5 4 3 2 2 2 3 3 3 3 4 4 4 4 4 4 3 3 2
13 10 6 4 9 13 18 20 22 23 23 23 22 21 20 17 15 14 13 12 10 9 9 8 7 5 4 3 3 3 3 4 4 3 3 3 3 3 3 3 3 2 1
12 10 5 2 8 13 15 18 21 21 22 23 22 21 19 17 16 15 13 12 11 10 10 9 8 7 6 5 4 4 4 4 4 3 3 2 2 2 2 2 1 1 2
11 9 5 2 6 11 13 17 19 21 22 22 21 20 19 17 17 15 14 13 12 12 11 10 9 8 7 6 5 4 4 4 4 3 3 3 3 2 2 2 2 3 3
10 8 5 2 3 8 11 15 18 20 21 21 21 20 18 17 16 15 14 13 13 13 12 11 10 10 9 8 7 6 5 5 5 4 4 4 4 4 4 4 4 5 6
9 7 5 3 2 6 10 13 16 18 20 20 19 18 17 16 16 15 14 13 13 13 13 12 12 11 11 11 10 9 9 8 8 8 7 7 8 8 8 8 8 8 8
8 6 4 2 2 4 8 11 14 17 18 18 18 17 17 16 15 14 14 13 14 14 14 14 13 13 13 13 13 13 12 12 12 12 12 12 12 12 12 12 12 12 12
8 6 3 1 2 3 6 9 13 15 16 17 18 17 17 16 15 15 14 14 14 15 15 15 15 15 15 16 16 16 16 16 16 16 16 16 16 16 16 16 16 16 17
8 5 3 1 1 2 4 7 11 12 14 15 16 17 16 16 16 15 15 15 15 16 16 16 16 17 17 18 18 19 19 20 20 20 20 20 20 20 20 21 21 21 21
8 5 3 2 2 2 3 5 7 9 11 15 16 16 16 17 16 16 16 16 16 17 17 17 18 19 19 20 21 22 22 23 23 23 24 24 24 25 25 25 26 26 26
8 6 5 4 4 3 4 5 7 9 10 13 15 16 17 17 16 17 17 18 18 18 18 19 19 20 21 22 24 25 25 25 26 27 27 28 28 28 29 30 30 30 30
9 7 6 5 5 5 6 6 7 8 10 11 13 15 17 18 18 19 19 19 19 19 20 20 21 22 23 24 26 27 28 29 29 30 31 32 32 33 33 33 34 34 33
10 9 7 7 6 7 8 8 9 9 10 11 13 15 17 17 18 19 19 18 19 20 22 22 24 25 26 26 27 28 29 31 32 33 34 36 36 36 36 37 37 37 37
11 10 10 9 9 8 9 9 10 10 11 13 14 16 17 18 19 19 20 20 20 21 23 24 26 26 27 28 29 30 32 33 34 35 37 38 39 39 39 39 39 40 41
12 12 12 12 11 10 10 11 11 12 12 13 14 16 18 19 19 20 20 20 21 23 24 25 26 28 29 31 32 33 35 36 36 38 39 40 41 41 41 41 42 43 43
15 14 14 13 14 13 12 13 13 14 14 14 14 15 16 17 19 21 21 22 23 24 25 26 29 30 31 33 33 34 36 38 39 39 40 42 43 43 43 44 45 46 46
17 16 16 16 15 14 14 14 15 14 15 15 15 16 17 16 17 19 21 23 25 26 27 29 30 31 33 34 35 36 37 39 40 42 43 45 46 46 46 47 47 48 49
19 18 17 17 17 16 16 16 16 14 14 15 16 16 17 17 18 19 21 23 25 27 29 30 31 32 33 34 36 37 38 40 41 42 44 46 46 46 47 48 49 50 50
23 21 19 18 18 18 18 17 18 17 17 17 18 19 20 20 21 22 24 25 27 29 30 32 33 34 35 35 36 37 38 40 41 42 44 46 47 47 48 49 50 50 51
25 24 23 21 20 20 19 19 19 19 19 20 21 22 23 24 24 26 27 29 30 32 33 33 34 35 35 36 37 38 39 41 42 43 44 45 46 47 49 50 51 52 53
27 25 25 24 23 22 22 21 21 21 22 23 23 24 25 26 28 29 30 31 32 33 34 35 35 35 36 37 38 39 41 42 44 45 46 47 48 50 51 52 54 55 56
28 26 26 25 24 23 23 23 23 23 24 25 25 27 27 28 29 30 31 32 33 34 35 36 36 37 39 40 41 42 43 45 46 48 49 51 52 53 55 56 58 59 60
28 26 25 25 24 24 23 24 24 24 25 27 27 28 29 30 31 32 33 34 34 35 36 37 38 39 41 42 43 45 46 47 49 50 52 53 55 56 57 58 60 61 62
26 25 26 25 24 24 24 24 25 26 27 28 29 30 31 32 33 34 35 35 36 37 39 40 41 42 43 45 46 47 48 50 51 52 53 55 56 56 58 59 60 61 61
26 25 25 24 24 24 24 25 26 27 28 29 30 32 33 34 35 36 37 38 39 40 41 42 44 45 46 48 49 51 52 53 54 55 56 57 57 58 59 59 60 60 60
22 21 23 23 23 23 25 26 27 28 29 31 32 33 34 35 36 38 39 40 42 43 44 45 47 49 50 52 53 54 55 56 57 58 58 58 59 59 58 58 57 57 56
Wind_Direction
327 324 307 264 225 207 203 201 202 201 204 205 208 211 213 214 216 219 224 226 227 229 229 232 232 220 206 191 167 156 147 135 133 127 123 121 122 126 129 139 150 160 181
332 332 319 262 208 197 197 198 198 199 201 203 204 207 208 212 216 221 226 224 226 224 223 227 222 212 202 189 172 163 153 143 139 139 137 135 131 132 134 139 147 163 195
341 338 325 248 193 189 194 197 196 197 200 201 204 205 207 211 216 220 221 221 222 221 221 221 217 210 202 194 189 185 174 164 160 162 167 164 158 146 148 163 188 221 248
345 349 344 293 193 187 191 193 193 198 198 199 203 205 207 212 216 218 219 221 222 222 221 220 217 213 209 207 207 205 199 196 194 193 193 194 200 199 204 234 255 262 264
346 355 358 4 186 186 190 192 194 195 195 200 206 206 207 209 212 216 218 220 221 221 221 221 220 219 219 219 222 227 232 235 233 230 228 228 235 241 246 257 269 272 271
343 353 5 27 150 176 180 183 189 192 196 200 204 206 208 209 214 218 219 220 221 222 224 227 226 227 228 230 234 240 248 253 253 253 252 253 255 258 262 265 270 273 275
339 342 358 43 115 171 182 186 187 190 195 201 205 208 213 214 217 220 223 225 227 228 231 235 234 234 236 240 244 248 252 257 259 261 262 262 264 267 270 272 273 274 275
343 343 360 70 124 168 180 188 193 196 198 202 203 209 214 216 220 224 227 231 234 236 237 239 242 243 244 247 251 254 256 258 261 263 265 266 269 271 273 275 276 277 277
335 335 327 303 197 195 193 195 195 200 204 206 208 213 217 221 225 228 231 237 241 243 244 245 248 250 252 254 256 259 261 262 264 266 267 269 271 272 274 275 276 276 276
322 313 308 288 253 233 209 195 202 207 210 211 215 219 223 226 231 234 238 243 245 249 251 251 253 255 257 259 262 264 265 266 267 269 269 270 272 273 274 275 276 276 276
309 296 286 277 255 251 227 215 218 218 218 220 223 229 233 234 236 238 242 247 250 252 255 257 258 260 262 264 265 266 267 268 270 271 272 272 273 274 274 275 276 276 276
302 290 280 271 256 245 239 229 232 231 229 229 231 233 235 237 240 244 248 251 253 255 257 259 262 264 266 268 268 268 270 270 271 273 274 274 275 275 275 276 276 276 276
299 287 277 270 263 254 248 246 244 240 234 233 237 240 242 244 247 249 252 254 257 259 260 262 266 266 268 270 270 269 270 272 272 273 274 275 275 275 275 276 276 275 275
293 287 282 276 270 260 256 258 250 245 240 239 242 246 247 249 251 254 256 261 263 264 265 266 268 270 270 271 272 270 271 273 273 274 275 275 274 275 275 276 275 275 274
285 283 281 273 269 265 261 260 254 251 247 248 250 252 254 253 256 259 259 263 266 268 268 269 270 271 272 273 273 273 273 273 275 276 276 276 274 275 276 276 276 276 276
276 277 275 269 263 260 262 263 264 257 256 258 257 261 259 258 259 260 261 265 269 271 272 273 273 275 275 274 273 273 273 274 275 276 276 276 275 273 275 276 276 276 276
268 271 269 265 260 260 262 263 264 266 263 263 264 266 269 269 271 268 267 270 271 272 274 275 275 275 275 275 274 274 274 275 275 276 277 276 275 274 274 275 275 276 276
262 263 264 261 258 259 262 263 267 268 268 268 270 273 276 277 275 274 270 271 272 273 274 276 277 278 278 277 277 276 275 276 276 277 278 278 276 274 275 275 275 276 277
257 258 257 256 256 257 258 262 266 269 270 272 274 275 277 278 278 277 276 276 276 277 278 278 278 279 278 278 277 277 277 277 278 279 279 279 278 277 276 276 276 277 278
255 255 254 253 253 254 258 263 267 269 272 274 276 278 279 279 279 279 280 280 279 280 281 281 281 280 280 279 279 279 279 279 280 280 280 280 280 280 278 278 277 278 278
250 250 249 250 251 253 256 261 266 270 273 275 277 279 280 281 282 283 283 283 283 283 283 283 283 283 283 283 283 282 282 281 281 281 281 282 281 281 280 279 279 279 279
243 243 246 247 251 254 257 262 268 272 275 277 279 281 283 284 285 285 285 285 285 285 285 285 285 285 285 285 285 284 284 284 284 283 283 283 283 283 282 282 282 281 281
240 239 242 246 250 255 260 265 270 274 278 280 282 283 284 285 286 287 287 287 288 288 288 288 288 288 287 287 286 286 286 286 285 285 285 285 285 285 284 284 284 283 283
236 239 242 247 252 257 265 271 275 278 281 283 285 286 287 288 290 290 291 291 291 291 291 290 290 289 289 289 288 288 288 288 287 287 287 287 286 286 286 286 286 286 285
235 240 244 247 254 262 269 275 278 281 284 286 287 288 290 291 291 292 292 293 293 292 292 292 291 291 290 290 290 290 290 290 290 289 289 288 288 289 289 288 288 287 287
233 239 245 252 259 266 273 277 280 283 286 287 289 290 291 292 293 293 293 293 293 293 292 292 291 291 291 291 291 292 291 291 291 290 290 290 290 290 290 289 289 289 288
Height
5824 5820 5817 5816 5817 5819 5823 5827 5832 5837 5841 5846 5850 5853 5856 5859 5862 5864 5866 5867 5869 5870 5871 5872 5873 5874 5874 5874 5875 5875 5876 5876 5877 5878 5878 5878 5878 5879 5879 5880 5880 5881 5881
5823 5819 5816 5815 5815 5818 5821 5825 5830 5835 5840 5844 5847 5851 5854 5857 5860 5862 5864 5865 5867 5868 5870 5871 5872 5873 5873 5874 5875 5875 5876 5876 5877 5878 5878 5879 5880 5879 5879 5880 5880 5880 5880
5823 5820 5817 5815 5815 5817 5820 5824 5828 5832 5838 5842 5845 5849 5852 5855 5858 5860 5862 5863 5865 5867 5868 5870 5871 5872 5873 5874 5874 5875 5876 5877 5877 5878 5879 5879 5879 5879 5880 5880 5880 5880 5880
5824 5821 5819 5818 5816 5818 5820 5823 5827 5831 5835 5839 5843 5847 5850 5853 5856 5858 5860 5862 5863 5865 5867 5869 5870 5871 5872 5873 5874 5875 5876 5876 5877 5877 5878 5879 5879 5879 5879 5880 5879 5879 5879
5825 5823 5820 5819 5819 5819 5820 5822 5826 5830 5834 5839 5842 5845 5848 5851 5854 5856 5858 5860 5862 5864 5866 5867 5868 5870 5871 5872 5873 5874 5875 5876 5876 5877 5877 5877 5878 5878 5878 5878 5878 5878 5878
5826 5824 5822 5821 5820 5821 5822 5824 5826 5830 5834 5837 5841 5844 5847 5850 5853 5855 5856 5858 5860 5862 5864 5865 5867 5868 5869 5871 5872 5873 5873 5874 5875 5875 5876 5876 5876 5877 5877 5877 5876 5876 5876
5827 5825 5824 5822 5822 5822 5823 5825 5827 5830 5833 5836 5839 5842 5846 5848 5851 5853 5855 5857 5859 5860 5862 5863 5865 5866 5868 5869 5870 5870 5871 5872 5873 5873 5873 5874 5874 5874 5874 5874 5874 5874 5873
5828 5826 5825 5824 5824 5824 5825 5826 5827 5829 5832 5835 5838 5841 5844 5847 5849 5851 5853 5855 5857 5858 5860 5861 5862 5864 5865 5866 5867 5868 5868 5869 5869 5870 5870 5870 5871 5871 5871 5871 5871 5870 5870
5828 5827 5826 5825 5825 5825 5825 5826 5827 5829 5831 5834 5837 5840 5842 5845 5847 5849 5851 5853 5854 5856 5857 5858 5859 5860 5862 5862 5863 5864 5865 5865 5866 5866 5866 5866 5866 5866 5866 5866 5866 5866 5865
5828 5827 5826 5825 5825 5825 5826 5826 5828 5829 5830 5833 5836 5838 5840 5842 5844 5846 5848 5849 5851 5852 5853 5854 5855 5856 5857 5858 5859 5859 5860 5861 5861 5861 5861 5861 5861 5861 5861 5861 5860 5860 5860
5828 5827 5826 5826 5826 5826 5826 5827 5828 5828 5830 5831 5834 5836 5837 5839 5841 5842 5844 5846 5847 5848 5849 5850 5851 5852 5852 5853 5854 5854 5854 5855 5855 5855 5855 5855 5855 5854 5854 5854 5853 5853 5853
5827 5826 5826 5825 5825 5825 5825 5826 5826 5827 5828 5829 5831 5833 5835 5836 5838 5839 5841 5842 5843 5844 5844 5845 5846 5847 5847 5847 5848 5848 5848 5848 5848 5848 5848 5847 5847 5847 5846 5846 5845 5845 5844
5826 5825 5825 5825 5824 5824 5824 5824 5824 5825 5826 5827 5829 5830 5832 5833 5834 5836 5837 5837 5838 5839 5840 5840 5841 5841 5841 5841 5841 5841 5840 5840 5839 5839 5839 5838 5838 5837 5837 5836 5836 5835 5834
5824 5823 5823 5823 5822 5822 5822 5822 5822 5822 5823 5824 5825 5826 5828 5829 5830 5831 5832 5833 5833 5834 5835 5835 5835 5835 5835 5834 5834 5833 5832 5831 5831 5830 5829 5828 5827 5827 5826 5825 5825 5824 5823
5821 5821 5821 5820 5820 5820 5820 5820 5819 5819 5820 5821 5821 5822 5823 5824 5826 5826 5827 5828 5828 5828 5828 5828 5828 5828 5827 5827 5826 5825 5824 5823 5822 5820 5819 5818 5817 5816 5815 5814 5813 5812 5811
5818 5818 5817 5817 5817 5817 5817 5817 5817 5817 5817 5817 5818 5819 5819 5819 5820 5821 5822 5822 5822 5822 5822 5822 5821 5820 5819 5818 5817 5816 5815 5813 5812 5810 5808 5807 5805 5804 5803 5802 5801 5800 5798
5814 5814 5814 5814 5814 5814 5814 5815 5814 5814 5814 5814 5815 5815 5816 5816 5816 5816 5816 5817 5817 5816 5816 5814 5813 5812 5810 5809 5808 5806 5805 5803 5802 5800 5798 5796 5794 5793 5791 5790 5788 5787 5785
5810 5810 5810 5810 5810 5810 5811 5811 5811 5811 5811 5811 5811 5811 5811 5811 5811 5811 5811 5811 5810 5809 5808 5806 5804 5803 5801 5800 5798 5796 5794 5792 5790 5788 5786 5784 5782 5781 5779 5777 5776 5774 5772
5803 5804 5805 5805 5806 5806 5807 5807 5807 5807 5807 5807 5807 5807 5807 5806 5806 5806 5805 5803 5802 5801 5799 5797 5795 5794 5792 5789 5787 5785 5783 5781 5779 5776 5774 5772 5770 5768 5766 5764 5762 5760 5757
5796 5798 5799 5800 5800 5801 5802 5802 5803 5803 5803 5803 5802 5802 5801 5800 5799 5798 5797 5795 5794 5792 5790 5788 5786 5783 5781 5779 5777 5774 5772 5770 5767 5765 5762 5759 5756 5754 5751 5749 5747 5745 5742
5789 5790 5792 5794 5794 5795 5796 5797 5797 5797 5797 5796 5796 5795 5794 5793 5792 5790 5788 5786 5784 5782 5780 5778 5775 5773 5771 5768 5765 5763 5760 5757 5755 5752 5749 5746 5743 5740 5737 5734 5732 5729 5726
5780 5783 5785 5787 5788 5789 5790 5790 5790 5790 5790 5789 5788 5787 5786 5785 5783 5781 5779 5777 5775 5772 5770 5767 5765 5762 5759 5757 5753 5750 5747 5744 5741 5738 5735 5732 5728 5725 5721 5718 5714 5711 5708
5773 5775 5778 5780 5782 5783 5783 5783 5784 5783 5783 5782 5780 5779 5777 5776 5774 5771 5769 5767 5764 5761 5759 5756 5753 5750 5747 5744 5741 5737 5734 5731 5727 5724 5720 5716 5712 5708 5704 5700 5696 5692 5688
5766 5769 5771 5773 5774 5775 5776 5776 5776 5776 5775 5773 5772 5770 5768 5766 5764 5761 5759 5756 5753 5750 5748 5745 5742 5738 5735 5731 5727 5723 5720 5716 5712 5708 5704 5699 5695 5691 5686 5682 5677 5672 5668
5759 5762 5764 5766 5767 5768 5769 5769 5768 5767 5766 5764 5763 5761 5758 5756 5754 5751 5748 5745 5742 5739 5736 5732 5729 5725 5721 5717 5713 5709 5705 5700 5696 5691 5686 5682 5677 5672 5667 5663 5658 5653 5649
5754 5756 5758 5760 5761 5761 5761 5761 5760 5759 5757 5756 5754 5751 5749 5746 5743 5740 5737 5734 5731 5727 5723 5719 5715 5711 5707 5702 5698 5693 5688 5683 5678 5673 5669 5664 5659 5654 5649 5645 5640 5635 5630